Bob Sikes Airport
KCEW : now visible

Airfield :











YOU CAN JOIN US ON...

 
LOGIN :

Register | Disclaimer

   EN    FR    IT 

 









Legend :    VFR   Marginal VFR   IFR   Intensive IFR   Very Intensive IFR
Visi :
Ceiling :
>= 8 km
>= 3000ft
5 to 8 km
1000 to 3000 ft
1500m to 5 km
500 to 1000 ft
800 to 1500m
200 to 500 ft
< 800m
< 200 ft
Symbols :   Thunderstorms  Fog  Heavy snow  Heavy precipitations  Wind > 20 kt






- Airport Elevation : 213 ft


KCEW - Bob Sikes

CURRENT METAR :
  • 031353Z AUTO 00000KT 10SM CLR 28/23 A2997 RMK AO2 SLP145 T02780233 $

EXPIRED METARs :
  • 031253Z AUTO 00000KT 10SM CLR 26/22 A2997 RMK AO2 SLP144 T02560222 $
  • 031153Z AUTO 00000KT 8SM CLR 24/22 A2995 RMK AO2 SLP138 T02440222 10261 20239 53006 $

TAF N/A
KZJX FIR / North America



MET'MAP, your aeronautical weather chart ! - Copyright ORBIFLY December 2007 - Disclaimer

ORBIFLY MET'MAP TEAM :

Programming & Development : Alexandra Zaïnal
Concept & original design : Baudouin d'Aumeries
Assistance for programming : Marc-Olivier Méhu
Technical & hardware support : Manuel Goepfert

Contact : metmap@orbifly.com




SOURCES & CREDITS :

   NOAA       Earth
Advisory